Regional Weather Roundup
Issued by NWS

Home | Current Version | Previous Version | Text Only | Print | Product List | Glossary Off
Versions: 1 2 3 4 5 6 7 8 9 10 11 12 13 14 15 16 17 18 19 20 21 22 23 24 25 26 27 28 29 30 31 32 33 34 35 36 37 38 39 40 41 42 43 44 45 46 47 48 49 50

000
ASUS43 KDMX 301403
RWRIA

WEATHER ROUNDUP FOR IOWA
NATIONAL WEATHER SERVICE DES MOINES IA
900 AM CDT MON MAY 30 2016

NOTE: "FAIR" INDICATES FEW OR NO CLOUDS BELOW 12,000 FEET WITH NO
SIGNIFICANT WEATHER AND/OR OBSTRUCTIONS TO VISIBILITY.

* - THESE STATIONS ARE NOT NWS STATIONS...THUS NOT UNDER NWS
QUALITY CONTROL.  THEY ALSO DO NOT REPORT WEATHER SUCH
AS PRECIPITATION OR FOG.

IAZ001>003-012>014-020>022-031>034-043>046-301500-
   NORTHWEST IOWA

CITY           SKY/WX    TMP DP  RH WIND       PRES   REMARKS
CARROLL *      SUNNY     72  55  56 E10       30.04S
CHEROKEE *     MOSUNNY   71  54  54 E7        30.02S
DENISON *      SUNNY     70  59  68 E6        30.01F
LE MARS *      MOSUNNY   70  55  60 SE8G16    30.01F
ORANGE CITY *  MOSUNNY   68  57  68 SE10      30.01S
SHELDON *      CLOUDY    66  57  72 SE10      30.00F
SIOUX CITY     SUNNY     71  56  58 SE14G20   30.01R
SPENCER        MOSUNNY   66  57  72 E7        30.03S
STORM LAKE *   SUNNY     72  52  49 E15       30.03S
$$

IAZ055>058-069>071-079>083-090>094-301500-
   SOUTHWEST IOWA

CITY           SKY/WX    TMP DP  RH WIND       PRES   REMARKS
ATLANTIC *     SUNNY     73  64  73 S5        30.02F
AUDUBON *      SUNNY     73  64  73 S5        30.03F
CLARINDA *       N/A     73  66  78 MISG      30.05R
COUNCIL BLFS * SUNNY     73  63  68 S3        30.02S
CRESTON *      SUNNY     72  63  73 SW6       30.06S
HARLAN  *      MOSUNNY   73  64  73 S8        30.04F
LAMONI         SUNNY     74  65  73 S6        30.04F
RED OAK *      SUNNY     73  64  73 S5        30.03S
SHENANDOAH *   SUNNY     73  66  78 CALM      30.03F
$$

IAZ047>049-059>061-072>074-084-301500-
   CENTRAL IOWA

CITY           SKY/WX    TMP DP  RH WIND       PRES   REMARKS
AMES           CLOUDY    72  60  66 NE8       30.06R
ANKENY *       SUNNY     73  64  73 S7        30.03S
BOONE *        SUNNY     70  55  60 NE14      30.04F
CHARITON *     SUNNY     73  64  73 S5        30.04F
DES MOINES     MOSUNNY   74  63  68 S3        30.02F
GRINNELL*      CLOUDY    73  61  64 SE6       30.05F
KNOXVILLE *    MOSUNNY   72  64  78 S7        30.03S
MARSHALLTOWN   CLOUDY    72  57  59 NE10      30.05R
NEWTON *       CLOUDY    73  64  73 SE6       30.04S
PELLA *        SUNNY     74  64  70 S3        30.05S
PERRY *          N/A     72  64  78 NE3       30.03S
$$

IAZ004>006-015-016-023>025-035-036-301500-
   NORTH CENTRAL IOWA

CITY           SKY/WX    TMP DP  RH WIND       PRES   REMARKS
ALGONA *       MOSUNNY   68  57  68 SE7G15    30.04S
CLARION *      PTSUNNY   66  59  77 SE13      30.05F
ESTHERVILLE    MOSUNNY   67  56  67 SE3       30.03R
FORT DODGE *   MOSUNNY   70  54  56 E13       30.05F
MASON CITY     CLOUDY    64  58  80 SE3       30.06F
FOREST CITY *  SUNNY     63  59  88 SE7       30.03F
WEBSTER CITY * MOSUNNY   70  55  60 E12G18    30.03F
IOWA FALLS *   LGT RAIN  64  57  77 NE6       30.09F
$$

IAZ007>011-017>019-026>030-037>042-050>054-066-301500-
   NORTHEAST IOWA

CITY           SKY/WX    TMP DP  RH WIND       PRES   REMARKS
CEDAR RAPIDS   CLOUDY    70  62  76 SE3       30.04S
CHARLES CITY * MOSUNNY   66  59  77 CALM      30.07F
CLINTON *      SUNNY     74  63  68 NE6       30.06R
DECORAH *      MOSUNNY   70  63  78 CALM      30.07R
DUBUQUE        SUNNY     75  58  55 N6        30.06S
MONTICELLO *   MOSUNNY   73  63  68 CALM      30.05S
OELWEIN *      CLOUDY    70  61  73 W12       30.10R
WATERLOO       CLOUDY    66  60  81 CALM      30.07S
$$

IAZ064-065-067-068-078-301500-
   EAST CENTRAL IOWA

CITY           SKY/WX    TMP DP  RH WIND       PRES   REMARKS
DAVENPORT      MOSUNNY   75  60  59 CALM      30.06R
IOWA CITY      LGT RAIN  70  64  81 S8        30.06S
MT. PLEASANT * LGT RAIN  72  64  78 N3        30.07R
MUSCATINE *    PTSUNNY   75  63  64 S7        30.05S
QUAD CITIES    MOSUNNY   76  61  59 W6        30.05R
$$

IAZ062-063-075>077-085>089-095>099-301500-
   SOUTHEAST IOWA

CITY           SKY/WX    TMP DP  RH WIND       PRES   REMARKS
BURLINGTON     PTSUNNY   74  66  76 S6        30.07R
FAIRFIELD *      N/A    N/A N/A N/A MISG        N/A
FORT MADISON * CLOUDY    73  64  73 SW3       30.08R
KEOKUK *       CLOUDY    73  64  73 CALM      30.06F
OSKALOOSA *      N/A     74  61  63 CALM      30.05S
OTTUMWA        SUNNY     72  64  76 S3        30.05S
WASHINGTON *   PTSUNNY   72 -36   1 SW10      30.08R
$$

ABBREVIATIONS USED IN REMARKS
   TC - TEMPERATURES IN CELSIUS
  WCI - WIND CHILL INDEX
   HX - HEAT INDEX
  VSB - VISIBILITY
$$





USA.gov is the U.S. government's official web portal to all federal, state and local government web resources and services.